Weather History for KI16 - March, 2014

Change the Weather History Date:

Monday, March 10, 2014

  Actual Average (KBKW) Record (KBKW)
Temperature  
Mean Temperature 48 °F 40 °F  
Max Temperature 67 °F 50 °F 72 °F (1925)
Min Temperature 28 °F 31 °F 1 °F (1996)
Degree Days  
Heating Degree Days 18 25  
Month to date heating degree days 262  
Since 1 July heating degree days 4263  
Cooling Degree Days 0 0  
Month to date cooling degree days 0  
Year to date cooling degree days 0  
Moisture  
Dew Point 34 °F    
Average Humidity 72    
Maximum Humidity 100    
Minimum Humidity 30    
Precipitation  
Precipitation 0.00 in 0.11 in 1.20 in (1992)
Month to date precipitation 1.11  
Year to date precipitation 6.68  
Snow  
Snow 0.00 in - - ()
Month to date snowfall  
Since 1 September snowfall  
Snow Depth -    
Sea Level Pressure  
Sea Level Pressure 29.98 in    
Wind  
Wind Speed - (North)    
Max Wind Speed -    
Max Gust Speed -    
Visibility 9 miles    
Events      
T = Trace of Precipitation, MM = Missing Value Source: NWS Daily Summary

Daily Weather History Graph

Daily Weather History Graph

Search for Another Location

Airport or City:

Trip Planner

Search our weather history database for the weather conditions in past years. The results will help you decide how hot, cold, wet, or windy it might be!

Date:

Astronomy

Mar. 10, 2014 Rise Set
Actual Time 7:44 AM EDT 7:28 PM EDT
Civil Twilight 7:18 AM EDT 7:54 PM EDT
Nautical Twilight 6:48 AM EDT 8:25 PM EDT
Astronomical Twilight 6:17 AM EDT 8:55 PM EDT
Moon 2:15 PM EDT (3/10) 3:50 AM EDT (3/10)
Length of Visible Light 12h 36m
Length of Day
11h 44m
Waxing Gibbous, 70% of the Moon is Illuminated
Mar 10
Waxing Gibbous
Mar 16
Full
Mar 23
Last Quarter
Mar 30
New
Apr 7
First Quarter

Hourly Weather History & Observations

Time (EDT) Temp. Dew Point Humidity Pressure Visibility Wind Dir Wind Speed Gust Speed Precip Events Conditions
12:15 AM 32.0 °F 31.5 °F 98% 30.10 in 10.0 mi North - - N/A   Clear
12:35 AM 31.8 °F 31.1 °F 97% 30.09 in 10.0 mi North - - N/A   Clear
12:55 AM 31.8 °F 31.3 °F 98% 30.08 in 7.0 mi North - - N/A   Clear
1:10 AM 31.6 °F 31.5 °F 99% 30.08 in 7.0 mi North - - N/A   Clear
1:35 AM 31.1 °F 30.9 °F 99% 30.08 in 7.0 mi North - - N/A   Clear
1:55 AM 31.1 °F 30.9 °F 99% 30.09 in 7.0 mi North - - N/A   Clear
2:15 AM 30.7 °F 30.7 °F 100% 30.09 in 7.0 mi North - - N/A   Clear
2:35 AM 30.7 °F 30.7 °F 100% 30.09 in 7.0 mi North - - N/A   Clear
2:55 AM 30.6 °F 30.6 °F 100% 30.08 in 7.0 mi North - - N/A   Clear
3:15 AM 30.2 °F 30.2 °F 100% 30.07 in 7.0 mi North - - N/A   Clear
3:35 AM 30.0 °F 30.0 °F 100% 30.06 in 7.0 mi North - - N/A   Clear
3:55 AM 30.0 °F 30.0 °F 100% 30.06 in 7.0 mi North - - N/A   Clear
4:15 AM 30.0 °F 30.0 °F 100% 30.06 in 7.0 mi North - - N/A   Clear
4:35 AM 29.7 °F 29.7 °F 100% 30.06 in 7.0 mi North - - N/A   Clear
4:55 AM 29.1 °F 29.1 °F 100% 30.06 in 7.0 mi North - - N/A   Clear
5:15 AM 29.3 °F 29.3 °F 100% 30.06 in 7.0 mi North - - N/A   Clear
5:35 AM 29.3 °F 29.3 °F 100% 30.05 in 7.0 mi North - - N/A   Clear
5:55 AM 29.1 °F 29.1 °F 100% 30.06 in 7.0 mi North - - N/A   Clear
6:15 AM 29.1 °F 29.1 °F 100% 30.06 in 7.0 mi North - - N/A   Clear
6:35 AM 29.3 °F 29.3 °F 100% 30.06 in 7.0 mi North - - N/A   Clear
6:55 AM 28.8 °F 28.8 °F 100% 30.06 in 5.0 mi North - - N/A   Clear
7:15 AM 28.4 °F 28.4 °F 100% 30.05 in 7.0 mi North - - N/A   Clear
7:35 AM 28.4 °F 28.4 °F 100% 30.05 in 7.0 mi North - - N/A   Clear
7:55 AM 28.2 °F 28.2 °F 100% 30.06 in 7.0 mi North - - N/A   Clear
8:15 AM 28.4 °F 28.4 °F 100% 30.06 in 5.0 mi North - - N/A   Clear
8:35 AM 28.6 °F 28.6 °F 100% 30.05 in 7.0 mi North - - N/A   Clear
8:55 AM 29.5 °F 29.5 °F 100% 30.05 in 5.0 mi North - - N/A   Clear
9:15 AM 31.1 °F 31.1 °F 100% 30.05 in 7.0 mi North - - N/A   Clear
9:35 AM 34.2 °F 34.2 °F 100% 30.04 in 7.0 mi North - - N/A   Clear
9:55 AM 38.5 °F 36.9 °F 94% 30.04 in 10.0 mi North - - N/A   Clear
10:15 AM 43.5 °F 37.8 °F 80% 30.04 in 10.0 mi North - - N/A   Clear
10:35 AM 49.3 °F 35.8 °F 60% 30.03 in 10.0 mi North - - N/A   Clear
10:55 AM 51.1 °F 36.0 °F 56% 30.03 in 10.0 mi North - - N/A   Clear
11:15 AM 51.8 °F 35.8 °F 54% 30.03 in 10.0 mi North - - N/A   Clear
11:35 AM 52.9 °F 35.4 °F 52% 30.02 in 10.0 mi North - - N/A   Clear
11:55 AM 54.0 °F 34.9 °F 49% 30.01 in 10.0 mi North - - N/A   Clear
12:15 PM 55.9 °F 35.2 °F 46% 30.01 in 10.0 mi North - - N/A   Clear
12:35 PM 57.0 °F 35.6 °F 45% 29.99 in 10.0 mi North - - N/A   Clear
12:55 PM 58.3 °F 35.6 °F 43% 29.99 in 10.0 mi North - - N/A   Clear
1:15 PM 59.5 °F 35.4 °F 41% 29.98 in 10.0 mi North - - N/A   Clear
1:35 PM 60.6 °F 34.9 °F 38% 29.97 in 10.0 mi North - - N/A   Clear
1:55 PM 61.9 °F 35.2 °F 37% 29.95 in 10.0 mi North - - N/A   Clear
2:15 PM 63.7 °F 36.0 °F 36% 29.93 in 10.0 mi North - - N/A   Clear
2:35 PM 63.1 °F 34.9 °F 35% 29.92 in 10.0 mi North - - N/A   Clear
2:55 PM 64.6 °F 34.7 °F 33% 29.91 in 10.0 mi North - - N/A   Clear
3:15 PM 64.8 °F 34.2 °F 32% 29.91 in 10.0 mi North - - N/A   Clear
3:35 PM 65.5 °F 34.2 °F 31% 29.89 in 10.0 mi North - - N/A   Clear
3:55 PM 66.0 °F 34.0 °F 30% 29.89 in 10.0 mi North - - N/A   Clear
4:15 PM 66.6 °F 34.7 °F 31% 29.89 in 10.0 mi North - - N/A   Clear
4:35 PM 67.3 °F 35.6 °F 31% 29.89 in 10.0 mi North - - N/A   Clear
4:55 PM 67.1 °F 35.6 °F 31% 29.89 in 10.0 mi North - - N/A   Clear
5:15 PM 65.7 °F 34.5 °F 31% 29.87 in 10.0 mi North - - N/A   Clear
5:35 PM 65.8 °F 33.8 °F 30% 29.87 in 10.0 mi North - - N/A   Clear
5:55 PM 64.6 °F 34.7 °F 33% 29.87 in 10.0 mi North - - N/A   Clear
6:15 PM 64.0 °F 34.7 °F 34% 29.87 in 10.0 mi North - - N/A   Clear
6:35 PM 63.0 °F 35.1 °F 35% 29.87 in 10.0 mi North - - N/A   Clear
6:55 PM 60.1 °F 36.9 °F 42% 29.87 in 10.0 mi North - - N/A   Clear
7:15 PM 54.7 °F 39.2 °F 56% 29.87 in 10.0 mi North - - N/A   Clear
7:35 PM 53.1 °F 39.4 °F 60% 29.87 in 10.0 mi North - - N/A   Clear
7:55 PM 51.8 °F 39.0 °F 62% 29.87 in 10.0 mi North - - N/A   Clear
8:15 PM 49.5 °F 39.2 °F 68% 29.87 in 10.0 mi North - - N/A   Clear
8:30 PM 48.4 °F 38.8 °F 70% 29.87 in 10.0 mi North - - N/A   Clear
8:55 PM 46.8 °F 38.7 °F 73% 29.87 in 10.0 mi North - - N/A   Clear
9:15 PM 45.5 °F 38.3 °F 76% 29.88 in 10.0 mi North - - N/A   Clear
9:35 PM 44.6 °F 38.1 °F 78% 29.89 in 10.0 mi North - - N/A   Clear
9:55 PM 43.7 °F 37.8 °F 80% 29.89 in 10.0 mi North - - N/A   Clear
10:15 PM 43.0 °F 37.2 °F 80% 29.89 in 10.0 mi North - - N/A   Clear
10:35 PM 41.9 °F 37.0 °F 83% 29.89 in 10.0 mi North - - N/A   Clear
10:55 PM 41.9 °F 36.9 °F 82% 29.89 in 10.0 mi North - - N/A   Clear
11:15 PM 41.5 °F 36.9 °F 83% 29.89 in 10.0 mi North - - N/A   Clear
11:35 PM 40.6 °F 36.5 °F 85% 29.89 in 10.0 mi North - - N/A   Clear
11:55 PM 40.3 °F 36.7 °F 87% 29.89 in 10.0 mi North - - N/A   Clear